Regional Weather Roundup
Issued by NWS

Home | Current Version | Previous Version | Text Only | Print | Product List | Glossary Off
Versions: 1 2 3 4 5 6 7 8 9 10 11 12 13 14 15 16 17 18 19 20 21 22 23 24 25 26 27 28 29 30 31 32 33 34 35 36 37 38 39 40 41 42 43 44 45 46 47 48 49 50

000
ASUS43 KBIS 241702
RWRND

NORTH DAKOTA REGIONAL WEATHER ROUNDUP
NATIONAL WEATHER SERVICE BISMARCK ND
1200 PM CDT SUN JUL 24 2016

NOTE: "FAIR" INDICATES FEW OR NO CLOUDS BELOW 12,000 FEET WITH NO
SIGNIFICANT WEATHER AND/OR OBSTRUCTIONS TO VISIBILITY.


NDZ001>003-009>011-017-241800-
NORTHWEST NORTH DAKOTA

CITY           SKY/WX    TMP DP  RH WIND       PRES   REMARKS
WILLISTON      SUNNY     78  53  41 W12       30.06S
MINOT          SUNNY     79  55  43 W20       30.00R
MINOT AFB      SUNNY     74  58  56 NW21      29.98R
$$

NDZ018>021-031>035-040>046-241800-
SOUTHWEST NORTH DAKOTA

CITY           SKY/WX    TMP DP  RH WIND       PRES   REMARKS
BISMARCK       SUNNY     78  57  48 W12       30.05S
DICKINSON      SUNNY     75  52  44 W8        30.08S
GARRISON         N/A     75  56  51 W13       30.04R
HETTINGER ARPT SUNNY     80  48  32 W7        30.12S
$$

NDZ004>008-012>016-024-026-027-054-241800-
NORTHEAST NORTH DAKOTA

CITY           SKY/WX    TMP DP  RH WIND       PRES   REMARKS
GRAND FORKS    MOSUNNY   77  64  64 W15G22    29.87R
GRND FRKS AFB  SUNNY     77  63  63 W14       29.88R
DEVILS LAKE    SUNNY     73  61  65 W18G24    29.94S
$$

NDZ022-023-025-028>030-036>039-047>053-241800-
SOUTHEAST NORTH DAKOTA

CITY           SKY/WX    TMP DP  RH WIND       PRES   REMARKS
FARGO          SUNNY     79  63  57 W16       29.91S
JAMESTOWN      SUNNY     76  56  49 NW17G25   29.98R
$$




USA.gov is the U.S. government's official web portal to all federal, state and local government web resources and services.